Hourly Weather Kozlovka

Today, 25 October, Sunday

Time Temperature Precipitation Wind Pressure Humidity
00:00 +10°C° 0.4 mm 1 mps 741 mmHg 93%
01:00 +9°C° 1.7 mm 1 mps 741 mmHg 94%
02:00 +9°C° 1.7 mm 1 mps 741 mmHg 95%
03:00 +8°C° 1.7 mm 2 mps 741 mmHg 97%
04:00 +8°C° 1.1 mm 2 mps 741 mmHg 96%
05:00 +8°C° 1.1 mm 2 mps 741 mmHg 95%
06:00 +8°C° 1.1 mm 2 mps 741 mmHg 95%
07:00 +8°C° 0.1 mm 3 mps 742 mmHg 93%
08:00 +7°C° 0.1 mm 4 mps 742 mmHg 92%
09:00 +7°C° 0.1 mm 4 mps 743 mmHg 90%
10:00 +8°C° 0 mm 5 mps 744 mmHg 85%
11:00 +8°C° 0 mm 5 mps 744 mmHg 81%
12:00 +9°C° 0 mm 6 mps 745 mmHg 77%
13:00 +9°C° 0.1 mm 5 mps 745 mmHg 76%
14:00 +9°C° 0.1 mm 5 mps 746 mmHg 75%
15:00 +9°C° 0.1 mm 5 mps 746 mmHg 74%
16:00 +8°C° 0 mm 4 mps 746 mmHg 79%
17:00 +7°C° 0 mm 4 mps 747 mmHg 83%
18:00 +7°C° 0 mm 3 mps 747 mmHg 88%
19:00 +7°C° 0 mm 3 mps 747 mmHg 89%
20:00 +7°C° 0 mm 3 mps 748 mmHg 91%
21:00 +6°C° 0 mm 2 mps 749 mmHg 93%
22:00 +7°C° 0 mm 3 mps 749 mmHg 91%
23:00 +7°C° 0 mm 3 mps 749 mmHg 90%

Tomorrow, 26 October, Monday

Time Temperature Precipitation Wind Pressure Humidity
00:00 +8°C° 0 mm 3 mps 749 mmHg 89%
01:00 +7°C° 0 mm 3 mps 749 mmHg 89%
02:00 +7°C° 0 mm 3 mps 750 mmHg 90%
03:00 +7°C° 0 mm 3 mps 750 mmHg 90%
04:00 +5°C° 0 mm 3 mps 750 mmHg 91%
05:00 +5°C° 0 mm 3 mps 751 mmHg 91%
06:00 +4°C° 0 mm 3 mps 751 mmHg 91%
07:00 +5°C° 0 mm 3 mps 751 mmHg 89%
08:00 +5°C° 0 mm 3 mps 751 mmHg 87%
09:00 +7°C° 0 mm 3 mps 752 mmHg 85%
10:00 +8°C° 0 mm 2 mps 752 mmHg 80%
11:00 +9°C° 0 mm 2 mps 752 mmHg 75%
12:00 +10°C° 0 mm 2 mps 752 mmHg 70%
13:00 +10°C° 0 mm 2 mps 753 mmHg 68%
14:00 +11°C° 0 mm 1 mps 753 mmHg 67%
15:00 +12°C° 0 mm 1 mps 753 mmHg 65%
16:00 +11°C° 0 mm 1 mps 753 mmHg 70%
17:00 +10°C° 0 mm 1 mps 753 mmHg 75%
18:00 +8°C° 0 mm 0 mps 753 mmHg 80%
19:00 +8°C° 0 mm 1 mps 753 mmHg 83%
20:00 +8°C° 0 mm 1 mps 754 mmHg 86%
21:00 +6°C° 0 mm 2 mps 754 mmHg 88%
22:00 +6°C° 0 mm 2 mps 754 mmHg 90%
23:00 +6°C° 0 mm 2 mps 755 mmHg 92%

Day after tomorrow, 27 October, Tuesday

Time Temperature Precipitation Wind Pressure Humidity
00:00 +5°C° 0 mm 2 mps 755 mmHg 94%
01:00 +5°C° 0 mm 2 mps 755 mmHg 94%
02:00 +5°C° 0 mm 2 mps 755 mmHg 94%
03:00 +5°C° 0 mm 2 mps 755 mmHg 94%
04:00 +4°C° 0 mm 2 mps 755 mmHg 95%
05:00 +4°C° 0 mm 2 mps 756 mmHg 95%
06:00 +4°C° 0 mm 2 mps 756 mmHg 95%
07:00 +4°C° 0 mm 3 mps 756 mmHg 93%
08:00 +4°C° 0 mm 3 mps 756 mmHg 91%
09:00 +4°C° 0 mm 3 mps 756 mmHg 89%
10:00 +5°C° 0 mm 3 mps 756 mmHg 86%
11:00 +7°C° 0 mm 3 mps 756 mmHg 82%
12:00 +8°C° 0 mm 3 mps 757 mmHg 79%
13:00 +9°C° 0 mm 3 mps 756 mmHg 78%
14:00 +9°C° 0 mm 3 mps 756 mmHg 77%
15:00 +9°C° 0 mm 3 mps 756 mmHg 76%
16:00 +8°C° 0 mm 3 mps 756 mmHg 80%
17:00 +7°C° 0 mm 3 mps 756 mmHg 84%
18:00 +7°C° 0 mm 3 mps 756 mmHg 88%
19:00 +5°C° 0 mm 3 mps 756 mmHg 89%
20:00 +5°C° 0 mm 3 mps 756 mmHg 90%
21:00 +5°C° 0 mm 3 mps 756 mmHg 90%
22:00 +4°C° 0 mm 3 mps 756 mmHg 91%
23:00 +4°C° 0 mm 3 mps 756 mmHg 91%

28 October, Wednesday

Time Temperature Precipitation Wind Pressure Humidity
00:00 +4°C° 0 mm 3 mps 756 mmHg 91%
01:00 +4°C° 0 mm 3 mps 756 mmHg 91%
02:00 +4°C° 0 mm 3 mps 756 mmHg 90%
03:00 +4°C° 0 mm 3 mps 756 mmHg 90%
04:00 +4°C° 0 mm 3 mps 756 mmHg 90%
05:00 +3°C° 0 mm 3 mps 756 mmHg 90%
06:00 +3°C° 0 mm 3 mps 756 mmHg 90%
07:00 +4°C° 0 mm 4 mps 757 mmHg 86%
08:00 +4°C° 0 mm 4 mps 757 mmHg 83%
09:00 +4°C° 0 mm 4 mps 757 mmHg 79%
10:00 +5°C° 0 mm 5 mps 757 mmHg 75%
11:00 +6°C° 0 mm 5 mps 757 mmHg 70%
12:00 +8°C° 0 mm 5 mps 757 mmHg 66%
13:00 +8°C° 0 mm 5 mps 757 mmHg 64%
14:00 +8°C° 0 mm 5 mps 757 mmHg 63%
15:00 +8°C° 0 mm 5 mps 756 mmHg 62%
16:00 +7°C° 0 mm 4 mps 756 mmHg 65%
17:00 +6°C° 0 mm 4 mps 756 mmHg 69%
18:00 +5°C° 0 mm 4 mps 756 mmHg 73%
19:00 +4°C° 0 mm 4 mps 756 mmHg 72%
20:00 +4°C° 0 mm 4 mps 756 mmHg 71%
21:00 +4°C° 0 mm 4 mps 757 mmHg 70%
22:00 +3°C° 0 mm 4 mps 757 mmHg 67%
23:00 +3°C° 0 mm 4 mps 757 mmHg 65%

29 October, Thursday

Time Temperature Precipitation Wind Pressure Humidity
00:00 +1°C° 0 mm 4 mps 757 mmHg 62%
01:00 +1°C° 0 mm 4 mps 757 mmHg 62%
02:00 0°C° 0 mm 4 mps 756 mmHg 62%
03:00 +1°C° 0 mm 3 mps 756 mmHg 62%
04:00 +1°C° 0 mm 3 mps 756 mmHg 63%
05:00 0°C° 0 mm 3 mps 756 mmHg 64%
06:00 0°C° 0 mm 3 mps 756 mmHg 65%
07:00 -1°C° 0 mm 4 mps 756 mmHg 65%
08:00 -1°C° 0 mm 4 mps 756 mmHg 64%
09:00 0°C° 0 mm 4 mps 756 mmHg 63%
10:00 +1°C° 0 mm 4 mps 756 mmHg 62%
11:00 +3°C° 0 mm 4 mps 756 mmHg 60%
12:00 +4°C° 0 mm 4 mps 756 mmHg 59%
13:00 +5°C° 0 mm 4 mps 755 mmHg 58%
14:00 +5°C° 0 mm 5 mps 755 mmHg 57%
15:00 +6°C° 0 mm 5 mps 754 mmHg 56%
16:00 +5°C° 0 mm 4 mps 754 mmHg 59%
17:00 +4°C° 0 mm 4 mps 754 mmHg 62%
18:00 +3°C° 0 mm 3 mps 754 mmHg 65%
19:00 +3°C° 0 mm 3 mps 754 mmHg 65%
20:00 +3°C° 0 mm 3 mps 754 mmHg 64%
21:00 +3°C° 0 mm 3 mps 754 mmHg 64%
22:00 +3°C° 0 mm 3 mps 754 mmHg 63%
23:00 +3°C° 0 mm 3 mps 753 mmHg 63%

30 October, Friday

Time Temperature Precipitation Wind Pressure Humidity
00:00 +3°C° 0 mm 3 mps 753 mmHg 63%
01:00 +3°C° 0 mm 3 mps 753 mmHg 64%
02:00 +3°C° 0 mm 3 mps 753 mmHg 64%
03:00 +3°C° 0 mm 3 mps 753 mmHg 65%
04:00 +2°C° 0 mm 3 mps 752 mmHg 66%
05:00 +2°C° 0 mm 3 mps 752 mmHg 68%
06:00 +2°C° 0 mm 3 mps 752 mmHg 69%
07:00 +2°C° 0 mm 3 mps 752 mmHg 69%
08:00 +3°C° 0 mm 3 mps 752 mmHg 69%
09:00 +3°C° 0 mm 3 mps 752 mmHg 69%
10:00 +4°C° 0 mm 3 mps 752 mmHg 66%
11:00 +5°C° 0 mm 3 mps 752 mmHg 64%
12:00 +7°C° 0 mm 3 mps 751 mmHg 62%
13:00 +7°C° 0 mm 3 mps 751 mmHg 62%
14:00 +8°C° 0 mm 3 mps 751 mmHg 63%
15:00 +8°C° 0 mm 3 mps 751 mmHg 63%
16:00 +7°C° 0 mm 3 mps 751 mmHg 67%
17:00 +6°C° 0 mm 2 mps 751 mmHg 71%
18:00 +5°C° 0 mm 2 mps 751 mmHg 76%
19:00 +5°C° 0 mm 2 mps 751 mmHg 78%
20:00 +5°C° 0 mm 2 mps 751 mmHg 79%
21:00 +5°C° 0 mm 2 mps 751 mmHg 81%
22:00 +4°C° 0 mm 2 mps 751 mmHg 83%
23:00 +4°C° 0 mm 2 mps 751 mmHg 85%
Show more